Weather History for Eureka, NV

Change the Weather History Date:

Friday, June 21, 2013

  Actual Average Record
Temperature  
Mean Temperature 58 °F 62 °F  
Max Temperature 78 °F 82 °F 95 °F (2012)
Min Temperature 38 °F 43 °F 26 °F (1989)
Degree Days  
Heating Degree Days 7 4  
Month to date heating degree days 61 138  
Since 1 June heating degree days 61 138  
Since 1 July heating degree days 6860 7354  
Cooling Degree Days 0 1  
Month to date cooling degree days 36 14  
Year to date cooling degree days 37 17  
Since 1 June cooling degree days 36 14  
Growing Degree Days 7 (Base 50)    
Moisture  
Dew Point 20 °F    
Average Humidity 31    
Maximum Humidity 54    
Minimum Humidity 8    
Precipitation  
Precipitation 0.00 in 0.02 in 0.05 in (1969)
Month to date precipitation 0.03 0.69  
Year to date precipitation 3.13 4.92  
Sea Level Pressure  
Sea Level Pressure 29.89 in    
Wind  
Wind Speed 7 mph (NNW)    
Max Wind Speed 20 mph    
Max Gust Speed 32 mph    
T = Trace of Precipitation, MM = Missing Value Source: NWS Daily Summary

Daily Weather History Graph

Daily Weather History Graph

Search for Another Location

Airport:

Trip Planner

Search our weather history database for the weather conditions in past years. The results will help you decide how hot, cold, wet, or windy it might be!

Date:

Astronomy

Jun. 21, 2013 Rise Set
Actual Time 5:16 AM PDT 8:15 PM PDT
Civil Twilight 4:44 AM PDT 8:47 PM PDT
Nautical Twilight 4:02 AM PDT 9:28 PM PDT
Astronomical Twilight 3:14 AM PDT 10:16 PM PDT
Moon 6:30 PM PDT (6/21) 3:35 AM PDT (6/21)
Length of Visible Light 16h 03m
Length of Day
14h 58m
Waxing Gibbous, 96% of the Moon is Illuminated
Jun 21
Waxing Gibbous
Jun 23
Full
Jun 29
Last Quarter
Jul 8
New
Jul 15
First Quarter

Hourly Weather History & Observations

Time (PDT) Temp. Windchill Dew Point Humidity Pressure Visibility Wind Dir Wind Speed Gust Speed Precip Events Conditions
12:53 AM 46.0 °F 43.9 °F 16.0 °F 30% 29.86 in - SW 4.6 mph - N/A   Unknown
1:53 AM 46.0 °F 43.1 °F 16.0 °F 30% 29.86 in - South 5.8 mph - N/A   Unknown
2:53 AM 45.0 °F 38.9 °F 21.9 °F 40% 29.91 in - NE 12.7 mph - N/A   Unknown
3:53 AM 39.9 °F 36.7 °F 25.0 °F 55% 29.93 in - East 4.6 mph - N/A   Unknown
4:53 AM 41.0 °F - 25.0 °F 53% 29.94 in - Calm Calm - N/A   Unknown
5:53 AM 37.9 °F - 23.0 °F 55% 29.94 in - Calm Calm - N/A   Unknown
6:53 AM 46.9 °F - 28.9 °F 50% 29.93 in - Calm Calm - N/A   Unknown
7:53 AM 51.1 °F - 28.9 °F 43% 29.95 in - Calm Calm - N/A   Unknown
8:53 AM 55.0 °F - 30.0 °F 38% 29.96 in - Calm Calm - N/A   Unknown
9:53 AM 57.9 °F - 30.0 °F 35% 29.95 in - East 5.8 mph - N/A   Unknown
10:53 AM 61.0 °F - 28.0 °F 29% 29.93 in - Variable 3.5 mph - N/A   Unknown
11:53 AM 64.9 °F - 24.1 °F 21% 29.92 in - South 8.1 mph - N/A   Unknown
12:53 PM 72.0 °F - 14.0 °F 11% 29.88 in - WNW 17.3 mph 21.9 mph N/A   Unknown
1:53 PM 73.0 °F - 16.0 °F 11% 29.85 in - WNW 8.1 mph 20.7 mph N/A   Unknown
2:53 PM 75.0 °F - 12.9 °F 9% 29.83 in - NW 19.6 mph 27.6 mph N/A   Unknown
3:53 PM 73.9 °F - 10.9 °F 9% 29.83 in - North - - N/A   Unknown
4:53 PM 77.0 °F - 10.9 °F 8% 29.81 in - WNW 15.0 mph 23.0 mph N/A   Unknown
5:53 PM 73.9 °F - 15.1 °F 11% 29.83 in - Variable 3.5 mph - N/A   Unknown
6:53 PM 72.0 °F - 18.0 °F 13% 29.81 in - WNW 15.0 mph - N/A   Unknown
7:53 PM 66.9 °F - 16.0 °F 14% 29.84 in - NW 10.4 mph - N/A   Unknown
8:53 PM 57.9 °F - 14.0 °F 18% 29.88 in - North 8.1 mph - N/A   Unknown
9:53 PM 55.0 °F - 19.9 °F 25% 29.92 in - NE 6.9 mph - N/A   Unknown
10:53 PM 54.0 °F - 18.0 °F 24% 29.93 in - North 8.1 mph - N/A   Unknown
11:53 PM 45.0 °F 41.8 °F 17.1 °F 33% 29.95 in - NE 5.8 mph - N/A   Unknown